Regional Weather Roundup
Issued by NWS

Home | Current Version | Previous Version | Graphics & Text | Print | Product List | Glossary On
Versions: 1 2 3 4 5 6 7 8 9 10 11 12 13 14 15 16 17 18 19 20 21 22 23 24 25 26 27 28 29 30 31 32 33 34 35 36 37 38 39 40 41 42 43 44 45 46 47 48 49
000
ASUS45 KBOI 302310
RWRID
WEATHER ROUNDUP FOR IDAHO
NATIONAL WEATHER SERVICE BOISE ID
500 PM MDT WED JUL 30 2014

NOTE: "FAIR" INDICATES FEW OR NO CLOUDS BELOW 12000 FEET
WITH NO SIGNIFICANT WEATHER AND/OR OBSTRUCTIONS TO VISIBILITY

IDZ012-014-310000-
SOUTHWEST IDAHO


CITY           SKY/WX    TMP DP  RH WIND       PRES   REMARKS
BOISE          SUNNY     94  50  22 N6        30.05F HX  91
CALDWELL       SUNNY     93  54  26 NW5       30.06F HX  91
MOUNTAIN HOME  MOSUNNY   94  45  18 VRB5      30.06F HX  90
$$

IDZ016-017-310000-
SOUTHCENTRAL IDAHO


CITY           SKY/WX    TMP DP  RH WIND       PRES   REMARKS
BURLEY         SUNNY     86  44  23 E6        30.14F
JEROME         SUNNY     87  52  29 N3        30.15F
TWIN FALLS     SUNNY     89  48  24 VRB5      30.15F
$$

IDZ019>023-310000-
SOUTHEAST IDAHO


CITY           SKY/WX    TMP DP  RH WIND       PRES   REMARKS
IDAHO FALLS    MOSUNNY   83  49  30 VRB7      30.21F
POCATELLO      MOSUNNY   86  46  24 NE12      30.18F
REXBURG        MOSUNNY   81  47  30 SW9       30.22F
$$

IDZ006-010-011-018-031-032-310000-
CENTRAL IDAHO MOUNTAINS


CITY           SKY/WX    TMP DP  RH WIND       PRES   REMARKS
MCCALL         MOSUNNY   88  34  14 W12G18    30.18F
HAILEY         TSTM      63  55  77 W9        30.34R
STANLEY          N/A     69  43  38 NW13G20   30.39R
SALMON         CLOUDY    84  43  23 SE10      30.10S
CHALLIS        CLOUDY    80  40  23 NW14      30.20S
$$

IDZ002-004-006-007-026-310000-
NORTHERN IDAHO


CITY           SKY/WX    TMP DP  RH WIND       PRES   REMARKS
LEWISTON       SUNNY    103  37  10 N5        29.95F HX  97
LOWELL           N/A     98  52  21 CALM      29.94F HX  95
COEUR D`ALENE  SUNNY     97  48  19 W6        29.99F HX  93
MULLAN PASS    MOSUNNY   78  42  27 VRB7      30.30F
$$


USA.gov is the U.S. government's official web portal to all federal, state and local government web resources and services.